• In Hungary
  • List of Countries
  • For 7 days
  • Water Temperature
  • Satellite Maps
  • Weather Map
  • News
  • Weather Widgets
  • user-avatar
    Login

    Hourly Weather Polotsk

    Today, 23 October, Monday

    Time Temperature Precipitation Wind Pressure Humidity
    00:00 0°C° 0 mm 1 mps 750 mmHg 73%
    01:00 -1°C° 0 mm 0 mps 750 mmHg 74%
    02:00 -1°C° 0 mm 0 mps 750 mmHg 75%
    03:00 -1°C° 0 mm 0 mps 750 mmHg 75%
    04:00 0°C° 0 mm 1 mps 750 mmHg 76%
    05:00 0°C° 0 mm 1 mps 750 mmHg 76%
    06:00 0°C° 0 mm 1 mps 750 mmHg 75%
    07:00 0°C° 0 mm 1 mps 750 mmHg 73%
    08:00 -1°C° 0 mm 2 mps 751 mmHg 72%
    09:00 +1°C° 0 mm 2 mps 751 mmHg 67%
    10:00 +2°C° 0 mm 2 mps 751 mmHg 61%
    11:00 +2°C° 0 mm 3 mps 751 mmHg 56%
    12:00 +3°C° 0 mm 3 mps 751 mmHg 55%
    13:00 +3°C° 0 mm 3 mps 752 mmHg 54%
    14:00 +3°C° 0 mm 3 mps 752 mmHg 53%
    15:00 +2°C° 0 mm 3 mps 752 mmHg 59%
    16:00 +1°C° 0 mm 3 mps 752 mmHg 65%
    17:00 -1°C° 0 mm 2 mps 753 mmHg 71%
    18:00 -1°C° 0 mm 2 mps 753 mmHg 74%
    19:00 -2°C° 0 mm 3 mps 753 mmHg 77%
    20:00 -2°C° 0 mm 3 mps 754 mmHg 79%
    21:00 -2°C° 0 mm 3 mps 754 mmHg 80%
    22:00 -4°C° 0 mm 3 mps 755 mmHg 81%
    23:00 -3°C° 0 mm 2 mps 755 mmHg 81%

    Tomorrow, 24 October, Tuesday

    Time Temperature Precipitation Wind Pressure Humidity
    00:00 -3°C° 0 mm 2 mps 756 mmHg 81%
    01:00 -3°C° 0 mm 2 mps 756 mmHg 81%
    02:00 -3°C° 0 mm 2 mps 756 mmHg 81%
    03:00 -3°C° 0 mm 2 mps 757 mmHg 81%
    04:00 -3°C° 0 mm 2 mps 757 mmHg 80%
    05:00 -3°C° 0 mm 2 mps 757 mmHg 80%
    06:00 -3°C° 0 mm 2 mps 757 mmHg 78%
    07:00 -4°C° 0 mm 3 mps 758 mmHg 76%
    08:00 -4°C° 0 mm 3 mps 758 mmHg 74%
    09:00 -1°C° 0 mm 3 mps 758 mmHg 67%
    10:00 0°C° 0 mm 3 mps 759 mmHg 61%
    11:00 +1°C° 0 mm 3 mps 759 mmHg 55%
    12:00 +2°C° 0 mm 3 mps 759 mmHg 53%
    13:00 +2°C° 0 mm 3 mps 759 mmHg 52%
    14:00 +2°C° 0 mm 3 mps 759 mmHg 51%
    15:00 +2°C° 0 mm 2 mps 759 mmHg 56%
    16:00 +1°C° 0 mm 2 mps 759 mmHg 62%
    17:00 -2°C° 0 mm 2 mps 759 mmHg 67%
    18:00 -2°C° 0 mm 2 mps 759 mmHg 69%
    19:00 -3°C° 0 mm 2 mps 760 mmHg 71%
    20:00 -3°C° 0 mm 2 mps 760 mmHg 73%
    21:00 -3°C° 0 mm 2 mps 760 mmHg 74%
    22:00 -3°C° 0 mm 2 mps 760 mmHg 74%
    23:00 -3°C° 0 mm 2 mps 760 mmHg 75%

    Day after tomorrow, 25 October, Wednesday

    Time Temperature Precipitation Wind Pressure Humidity
    00:00 -4°C° 0 mm 2 mps 760 mmHg 75%
    01:00 -4°C° 0 mm 2 mps 760 mmHg 76%
    02:00 -4°C° 0 mm 2 mps 760 mmHg 76%
    03:00 -4°C° 0 mm 2 mps 760 mmHg 77%
    04:00 -4°C° 0 mm 2 mps 760 mmHg 77%
    05:00 -4°C° 0 mm 2 mps 760 mmHg 78%
    06:00 -4°C° 0 mm 2 mps 760 mmHg 77%
    07:00 -3°C° 0 mm 2 mps 760 mmHg 75%
    08:00 -4°C° 0 mm 3 mps 760 mmHg 74%
    09:00 -2°C° 0 mm 3 mps 760 mmHg 68%
    10:00 0°C° 0 mm 3 mps 760 mmHg 62%
    11:00 0°C° 0 mm 4 mps 760 mmHg 56%
    12:00 +1°C° 0 mm 4 mps 759 mmHg 55%
    13:00 +1°C° 0 mm 4 mps 759 mmHg 54%
    14:00 +1°C° 0 mm 4 mps 758 mmHg 53%
    15:00 0°C° 0 mm 4 mps 758 mmHg 59%
    16:00 -1°C° 0 mm 4 mps 757 mmHg 64%
    17:00 -1°C° 0 mm 3 mps 757 mmHg 70%
    18:00 -2°C° 0 mm 4 mps 756 mmHg 69%
    19:00 -2°C° 0 mm 5 mps 755 mmHg 68%
    20:00 -1°C° 0 mm 5 mps 755 mmHg 67%
    21:00 -1°C° 0.2 mm 5 mps 754 mmHg 67%
    22:00 -1°C° 0.2 mm 5 mps 753 mmHg 66%
    23:00 -1°C° 0.2 mm 5 mps 753 mmHg 66%

    26 October, Thursday

    Time Temperature Precipitation Wind Pressure Humidity
    00:00 -2°C° 1.3 mm 6 mps 752 mmHg 73%
    01:00 -2°C° 1.3 mm 6 mps 751 mmHg 81%
    02:00 -2°C° 1.3 mm 7 mps 751 mmHg 88%
    03:00 -2°C° 0.6 mm 6 mps 750 mmHg 89%
    04:00 -2°C° 0.6 mm 6 mps 749 mmHg 90%
    05:00 -1°C° 0.6 mm 5 mps 749 mmHg 91%
    06:00 0°C° 0.2 mm 5 mps 748 mmHg 92%
    07:00 0°C° 0.2 mm 5 mps 748 mmHg 94%
    08:00 0°C° 0.2 mm 4 mps 748 mmHg 95%
    09:00 +1°C° 0.1 mm 4 mps 747 mmHg 96%
    10:00 +3°C° 0.1 mm 4 mps 747 mmHg 96%
    11:00 +3°C° 0.1 mm 4 mps 747 mmHg 97%
    12:00 +4°C° 0.1 mm 4 mps 746 mmHg 98%
    13:00 +4°C° 0.1 mm 3 mps 746 mmHg 98%
    14:00 +4°C° 0.1 mm 3 mps 745 mmHg 98%
    15:00 +5°C° 0.3 mm 3 mps 745 mmHg 98%
    16:00 +5°C° 0.3 mm 3 mps 744 mmHg 98%
    17:00 +5°C° 0.3 mm 3 mps 744 mmHg 98%
    18:00 +5°C° 0.5 mm 3 mps 744 mmHg 97%
    19:00 +5°C° 0.5 mm 3 mps 743 mmHg 97%
    20:00 +5°C° 0.5 mm 3 mps 743 mmHg 97%
    21:00 +5°C° 0.3 mm 3 mps 742 mmHg 97%
    22:00 +4°C° 0.3 mm 3 mps 742 mmHg 97%
    23:00 +4°C° 0.3 mm 3 mps 742 mmHg 97%

    27 October, Friday

    Time Temperature Precipitation Wind Pressure Humidity
    00:00 +4°C° 0.1 mm 3 mps 741 mmHg 97%
    01:00 +4°C° 0.1 mm 3 mps 741 mmHg 97%
    02:00 +5°C° 0.1 mm 3 mps 741 mmHg 97%
    03:00 +5°C° 0.1 mm 3 mps 741 mmHg 97%
    04:00 +5°C° 0.1 mm 3 mps 740 mmHg 97%
    05:00 +5°C° 0.1 mm 3 mps 740 mmHg 96%
    06:00 +5°C° 0.1 mm 3 mps 740 mmHg 96%
    07:00 +5°C° 0.1 mm 3 mps 739 mmHg 96%
    08:00 +5°C° 0.1 mm 3 mps 739 mmHg 96%
    09:00 +5°C° 0 mm 3 mps 739 mmHg 95%
    10:00 +7°C° 0 mm 3 mps 738 mmHg 94%
    11:00 +7°C° 0 mm 3 mps 738 mmHg 93%
    12:00 +7°C° 0.2 mm 3 mps 738 mmHg 92%
    13:00 +7°C° 0.2 mm 3 mps 737 mmHg 91%
    14:00 +8°C° 0.2 mm 2 mps 737 mmHg 90%
    15:00 +7°C° 0.1 mm 2 mps 737 mmHg 91%
    16:00 +6°C° 0.1 mm 2 mps 736 mmHg 93%
    17:00 +7°C° 0.1 mm 1 mps 736 mmHg 95%
    18:00 +5°C° 0 mm 2 mps 736 mmHg 95%
    19:00 +5°C° 0 mm 2 mps 735 mmHg 95%
    20:00 +5°C° 0 mm 2 mps 735 mmHg 96%
    21:00 +5°C° 0 mm 2 mps 735 mmHg 96%
    22:00 +4°C° 0 mm 2 mps 734 mmHg 96%
    23:00 +4°C° 0 mm 2 mps 734 mmHg 96%

    28 October, Saturday

    Time Temperature Precipitation Wind Pressure Humidity
    00:00 +4°C° 0 mm 2 mps 734 mmHg 96%
    01:00 +4°C° 0 mm 2 mps 734 mmHg 96%
    02:00 +4°C° 0 mm 2 mps 733 mmHg 96%
    03:00 +4°C° 0 mm 2 mps 733 mmHg 96%
    04:00 +4°C° 0 mm 2 mps 733 mmHg 96%
    05:00 +5°C° 0 mm 2 mps 732 mmHg 96%
    06:00 +5°C° 0.1 mm 2 mps 733 mmHg 97%
    07:00 +5°C° 0.1 mm 2 mps 733 mmHg 97%
    08:00 +5°C° 0.1 mm 2 mps 733 mmHg 97%
    09:00 +6°C° 0.2 mm 1 mps 733 mmHg 95%
    10:00 +7°C° 0.2 mm 1 mps 733 mmHg 93%
    11:00 +8°C° 0.2 mm 1 mps 733 mmHg 91%
    12:00 +8°C° 0.1 mm 1 mps 733 mmHg 89%
    13:00 +7°C° 0.1 mm 2 mps 733 mmHg 87%
    14:00 +7°C° 0.1 mm 2 mps 734 mmHg 86%
    15:00 +6°C° 0.1 mm 2 mps 734 mmHg 87%
    16:00 +6°C° 0.1 mm 2 mps 734 mmHg 89%
    17:00 +5°C° 0.1 mm 2 mps 734 mmHg 91%
    18:00 +4°C° 0 mm 2 mps 735 mmHg 91%
    19:00 +4°C° 0 mm 2 mps 735 mmHg 92%
    20:00 +4°C° 0 mm 2 mps 736 mmHg 93%
    21:00 +3°C° 0 mm 2 mps 736 mmHg 93%
    22:00 +3°C° 0 mm 2 mps 736 mmHg 93%
    23:00 +3°C° 0 mm 2 mps 737 mmHg 94%

    29 October, Sunday

    Time Temperature Precipitation Wind Pressure Humidity
    00:00 +3°C° 0 mm 2 mps 737 mmHg 94%
    01:00 +2°C° 0 mm 2 mps 737 mmHg 94%
    02:00 +2°C° 0 mm 2 mps 737 mmHg 95%
    03:00 +3°C° 0 mm 1 mps 738 mmHg 95%
    04:00 +3°C° 0 mm 1 mps 738 mmHg 95%
    05:00 +3°C° 0 mm 1 mps 738 mmHg 95%
    06:00 +3°C° 0 mm 1 mps 738 mmHg 96%
    07:00 +2°C° 0 mm 1 mps 738 mmHg 96%
    08:00 +2°C° 0 mm 1 mps 739 mmHg 96%
    09:00 +4°C° 0 mm 1 mps 739 mmHg 92%
    10:00 +5°C° 0 mm 1 mps 739 mmHg 87%
    11:00 +6°C° 0 mm 1 mps 739 mmHg 83%
    12:00 +6°C° 0 mm 2 mps 739 mmHg 81%
    13:00 +6°C° 0 mm 2 mps 738 mmHg 79%
    14:00 +7°C° 0 mm 2 mps 738 mmHg 77%
    15:00 +6°C° 0 mm 2 mps 738 mmHg 82%
    16:00 +5°C° 0 mm 2 mps 738 mmHg 86%
    17:00 +4°C° 0 mm 2 mps 737 mmHg 91%
    18:00 +4°C° 0 mm 2 mps 737 mmHg 92%
    19:00 +2°C° 0 mm 3 mps 736 mmHg 92%
    20:00 +2°C° 0 mm 3 mps 736 mmHg 93%
    21:00 +3°C° 0 mm 4 mps 735 mmHg 92%
    22:00 +3°C° 0 mm 4 mps 735 mmHg 92%
    23:00 +3°C° 0 mm 5 mps 734 mmHg 91%
    Show more